[[{"header":{"parameterUnit":"m.s-1","parameterCategory":2,"la1":30.2991,"la2":30.254,"lo1":-89.0895,"lo2":-89.0444,"dy":0.0017,"dx":0.0017,"nx":28,"ny":28,"refTime":"2024-05-04T21:00:00:Z","depth":"0","parameterNumber":2,"parameterNumberName":"U-component_of_CURRENTS"},"data":[0,0,0,0,0,0,0,0,0,0,0,0,0,0,0,0,0,0,0,0,0,0,0,0,0,0,0,0,0,0,0,0,0,0,0,0,0,0,0,0,0,0,0,0,0,0,0,0,0,0,0,0,0,0,0,0,0,0,-0.2413,-0.2413,0,-0.2401,-0.24,-0.24,-0.2359,-0.2358,-0.2357,-0.2357,-0.2306,-0.2305,-0.2304,0,0,0,0,0,0,0,0,0,0,0,0,0,-0.2428,-0.2428,-0.2413,-0.2413,-0.2413,-0.2401,-0.24,-0.24,-0.2359,-0.2358,-0.2357,-0.2356,-0.2306,-0.2305,-0.2304,0,0,0,0,0,0,0,0,0,0,0,0,0,-0.2417,-0.2428,-0.2413,-0.2393,-0.2391,-0.2401,-0.24,-0.24,-0.2359,-0.2358,-0.2357,-0.2356,-0.2306,-0.2305,-0.2304,-0.2318,0,0,-0.2301,-0.23,0,0,0,0,0,0,0,0,-0.2418,-0.2416,-0.2396,-0.2395,-0.2393,-0.2382,-0.2387,-0.2372,-0.2359,-0.2369,-0.2357,-0.2355,-0.233,-0.2327,-0.2324,-0.2316,-0.2314,-0.2301,-0.23,-0.23,-0.2299,0,0,0,0,0,0,0,-0.2418,-0.2417,-0.2406,-0.2396,-0.2394,-0.2394,-0.2391,-0.2384,-0.2353,-0.2368,-0.2365,-0.2368,-0.2328,-0.2325,-0.2322,-0.2313,-0.2301,-0.23,-0.2299,-0.2299,-0.2332,-0.2333,0,0,0,0,0,0,-0.2425,-0.2417,-0.2406,-0.2406,-0.2406,-0.2395,-0.2391,-0.2385,-0.2354,-0.2349,-0.2369,-0.2367,-0.2327,-0.2324,-0.232,-0.2356,-0.23,-0.2299,-0.2298,-0.233,-0.2332,-0.2334,0,0,0,0,0,0,-0.2425,-0.2424,-0.2407,-0.2414,-0.2412,-0.2396,-0.2389,-0.2385,-0.2383,-0.2356,-0.2349,-0.2371,-0.2327,-0.2322,-0.2325,-0.2353,-0.2298,-0.2297,-0.2329,-0.2331,-0.2333,-0.2413,0,0,0,0,0,0,-0.2425,-0.2423,-0.2419,-0.2414,-0.2412,-0.2426,-0.239,-0.2386,-0.2387,-0.2383,-0.2355,-0.2349,-0.2325,-0.2327,-0.2324,-0.235,-0.2296,-0.2327,-0.233,-0.2332,-0.2409,-0.2418,-0.2426,0,0,0,0,0,-0.2426,-0.2433,-0.2418,-0.2417,-0.2406,-0.2427,-0.2427,-0.241,-0.2388,-0.2401,-0.2379,-0.235,-0.2343,-0.2328,-0.2324,-0.235,-0.2325,-0.2329,-0.2332,-0.2405,-0.2416,-0.2426,0,0,0,0,0,0,-0.2437,-0.243,-0.2413,-0.2416,-0.2425,-0.2422,-0.2427,-0.2418,-0.2411,-0.2399,-0.2368,-0.2362,-0.2375,-0.2355,-0.2339,-0.2369,-0.233,-0.2333,-0.2387,-0.2398,-0.2406,-0.241,-0.2295,0,0,0,0,0,-0.2438,-0.2436,-0.2437,-0.2438,-0.2443,-0.2435,-0.2438,-0.2431,-0.2426,-0.2421,-0.2403,-0.2387,-0.2388,-0.2386,-0.2378,-0.2395,-0.2377,-0.2411,-0.2419,-0.2427,-0.2428,-0.2434,-0.2443,-0.2345,-0.2345,-0.2345,0,0,-0.2441,-0.2437,-0.2435,-0.2441,-0.2438,-0.2462,-0.2434,-0.2446,-0.2466,-0.2418,-0.243,-0.2415,-0.24,-0.2419,-0.2423,-0.2404,-0.2447,-0.2431,-0.2438,-0.2435,-0.2438,-0.2448,-0.2456,-0.2347,-0.2347,-0.2347,0,0,-0.2459,-0.2445,-0.2453,-0.247,-0.2478,-0.2481,-0.2489,-0.2492,-0.2491,-0.2506,-0.248,-0.2489,-0.2477,-0.2483,-0.2483,-0.2538,-0.2492,-0.2528,-0.2575,-0.2581,-0.2589,-0.2596,-0.2593,-0.2598,-0.2534,-0.2534,-0.2534,0,-0.2465,-0.2475,-0.2463,-0.2488,-0.2509,-0.2494,-0.2528,-0.2532,-0.2536,-0.2546,-0.2518,-0.2524,-0.2514,-0.255,-0.2567,-0.2559,-0.2541,-0.2537,-0.2592,-0.2598,-0.2604,-0.2599,-0.2604,-0.2538,-0.2538,-0.2537,-0.2537,0,-0.249,-0.251,-0.2524,-0.2544,-0.2567,-0.2597,-0.2609,-0.2624,-0.2615,-0.2617,-0.2639,-0.2624,-0.2626,-0.2632,-0.2613,-0.2655,-0.2623,-0.2602,-0.2565,-0.2618,-0.261,-0.2614,-0.2544,-0.2543,-0.2541,-0.254,0,0,-0.2481,-0.2532,-0.2538,-0.2565,-0.2605,-0.2625,-0.2667,-0.2705,-0.2721,-0.2721,-0.2746,-0.276,-0.2736,-0.2734,-0.2716,-0.2722,-0.2754,-0.2677,-0.2675,-0.2672,-0.2753,-0.262,-0.261,-0.2732,-0.2733,-0.2734,-0.2734,0,-0.2509,-0.2568,-0.2588,-0.2654,-0.2691,-0.2712,-0.2749,-0.2776,-0.2783,-0.28,-0.2799,-0.2804,-0.278,-0.2771,-0.2782,-0.2755,-0.2766,-0.2755,-0.2702,-0.2701,-0.2574,-0.2611,-0.2469,-0.2446,-0.2737,-0.2738,-0.2738,0,-0.253,-0.2571,-0.264,-0.2713,-0.2728,-0.276,-0.2813,-0.2844,-0.2872,-0.2874,-0.2887,-0.2866,-0.2889,-0.2845,-0.2845,-0.283,-0.2802,-0.2779,-0.2778,-0.2624,-0.2574,-0.2438,-0.2441,-0.2414,-0.2744,-0.2743,-0.2743,0,-0.2528,-0.2611,-0.2666,-0.2694,-0.2765,-0.2795,-0.2825,-0.2863,-0.288,-0.2911,-0.291,-0.2932,-0.2917,-0.2907,-0.2861,-0.285,-0.2838,-0.2821,-0.2682,-0.2673,-0.2526,-0.25,-0.249,-0.2825,-0.2825,-0.2825,-0.2825,0,-0.2557,-0.2602,-0.2666,-0.2697,-0.2743,-0.2796,-0.2831,-0.2862,-0.2899,-0.2902,-0.2933,-0.2924,-0.2924,-0.2909,-0.2882,-0.2784,-0.286,-0.2691,-0.2663,-0.2549,-0.2526,-0.2472,-0.2493,-0.2825,-0.2825,-0.2825,-0.2825,0,-0.2543,-0.2594,-0.2649,-0.2724,-0.2742,-0.2764,-0.2816,-0.2835,-0.2878,-0.2883,-0.2889,-0.2917,-0.2877,-0.287,-0.2842,-0.2779,-0.2659,-0.2677,-0.2534,-0.2487,-0.229,-0.232,-0.226,-0.2201,-0.2515,-0.2512,-0.2509,0,-0.254,-0.2572,-0.2637,-0.2646,-0.2674,-0.2715,-0.2734,-0.2804,-0.2816,-0.2857,-0.2847,-0.2836,-0.2751,-0.2675,-0.2594,-0.2512,-0.2534,-0.2347,-0.2297,-0.2255,-0.2271,-0.2295,-0.2252,-0.2152,-0.2146,-0.2142,-0.2138,0,-0.2517,-0.2533,-0.2562,-0.2578,-0.2601,-0.2626,-0.266,-0.2654,-0.2713,-0.2686,-0.2621,-0.2558,-0.25,-0.2327,-0.226,-0.221,-0.2257,-0.2246,-0.2251,-0.2017,-0.1997,-0.1932,-0.2187,-0.2098,-0.2102,-0.2105,-0.2107,-0.2109,-0.2464,-0.2462,-0.2476,-0.2478,-0.2506,-0.2483,-0.2428,-0.2435,-0.2373,-0.2268,-0.234,-0.219,-0.2136,-0.1978,-0.194,-0.1832,-0.1924,-0.1771,-0.1824,-0.1863,-0.1757,-0.1907,-0.1748,-0.175,-0.1752,-0.1753,-0.1755,0,-0.2372,-0.2367,-0.237,-0.2349,-0.2318,-0.237,-0.2331,-0.2217,-0.2037,-0.2,-0.1867,-0.1764,-0.1612,-0.163,-0.1532,-0.1446,-0.1441,-0.1443,-0.1476,-0.1462,-0.1622,-0.1554,-0.1286,-0.1286,-0.1286,-0.1286,-0.1286,-0.1286,-0.2316,-0.2267,-0.2262,-0.215,-0.2134,-0.2019,-0.1945,-0.1764,-0.1676,-0.1438,-0.1378,-0.1407,-0.1424,-0.1465,-0.1356,-0.129,-0.1295,-0.1223,-0.1303,-0.1448,-0.1485,-0.152,-0.1461,-0.1177,-0.1177,-0.1065,-0.1064,-0.1064]},{"header":{"parameterUnit":"m.s-1","parameterCategory":2,"la1":30.2991,"la2":30.254,"lo1":-89.0895,"lo2":-89.0444,"dy":0.0017,"dx":0.0017,"nx":28,"ny":28,"refTime":"2024-05-04T21:00:00:Z","depth":"0","parameterNumber":3,"parameterNumberName":"V-component_of_CURRENTS"},"data":[0,0,0,0,0,0,0,0,0,0,0,0,0,0,0,0,0,0,0,0,0,0,0,0,0,0,0,0,0,0,0,0,0,0,0,0,0,0,0,0,0,0,0,0,0,0,0,0,0,0,0,0,0,0,0,0,0,0,-0.0427,-0.0427,0,-0.0382,-0.0382,-0.0381,-0.0379,-0.038,-0.038,-0.0381,-0.0307,-0.0304,-0.0302,0,0,0,0,0,0,0,0,0,0,0,0,0,-0.0433,-0.0433,-0.0427,-0.0427,-0.0426,-0.0382,-0.0381,-0.0381,-0.0379,-0.038,-0.0381,-0.0381,-0.0308,-0.0304,-0.0301,0,0,0,0,0,0,0,0,0,0,0,0,0,-0.0412,-0.0433,-0.0427,-0.0421,-0.042,-0.0382,-0.0381,-0.0381,-0.0379,-0.038,-0.0381,-0.0382,-0.0309,-0.0305,-0.0301,-0.0257,0,0,-0.0289,-0.0287,0,0,0,0,0,0,0,0,-0.0413,-0.0412,-0.0422,-0.0421,-0.042,-0.0388,-0.0356,-0.0338,-0.0379,-0.0393,-0.0381,-0.0382,-0.0331,-0.0326,-0.0314,-0.0254,-0.0251,-0.0289,-0.0286,-0.0285,-0.0284,0,0,0,0,0,0,0,-0.0415,-0.0413,-0.0408,-0.0422,-0.0421,-0.0393,-0.0392,-0.0352,-0.0356,-0.0392,-0.0392,-0.0389,-0.0331,-0.0317,-0.0312,-0.025,-0.0289,-0.0285,-0.0283,-0.0281,-0.0166,-0.0166,0,0,0,0,0,0,-0.0426,-0.0415,-0.0409,-0.0407,-0.0421,-0.0393,-0.0392,-0.0397,-0.0357,-0.0352,-0.0388,-0.0389,-0.0324,-0.0316,-0.0309,-0.0277,-0.0285,-0.0281,-0.0279,-0.0167,-0.0166,-0.0165,0,0,0,0,0,0,-0.0427,-0.0426,-0.0411,-0.041,-0.0407,-0.0393,-0.0398,-0.0395,-0.0383,-0.0354,-0.0349,-0.0379,-0.0324,-0.0315,-0.0274,-0.0273,-0.0279,-0.0276,-0.0168,-0.0167,-0.0166,-0.0198,0,0,0,0,0,0,-0.0427,-0.0427,-0.043,-0.0411,-0.0407,-0.0387,-0.0397,-0.0394,-0.038,-0.0381,-0.0345,-0.0339,-0.0324,-0.028,-0.027,-0.0268,-0.0273,-0.0169,-0.0167,-0.0166,-0.0198,-0.0198,-0.0198,0,0,0,0,0,-0.0428,-0.0429,-0.0431,-0.043,-0.0414,-0.0386,-0.0381,-0.0373,-0.0379,-0.0367,-0.0347,-0.034,-0.0265,-0.0276,-0.0265,-0.0261,-0.0169,-0.0168,-0.0166,-0.0198,-0.0198,-0.0198,0,0,0,0,0,0,-0.0429,-0.0428,-0.043,-0.0431,-0.041,-0.0386,-0.0376,-0.0369,-0.0343,-0.0346,-0.0323,-0.0315,-0.0282,-0.0259,-0.0272,-0.0223,-0.0218,-0.0214,-0.0246,-0.0246,-0.0246,-0.027,-0.027,0,0,0,0,0,-0.0432,-0.0438,-0.0422,-0.0421,-0.0412,-0.0393,-0.038,-0.0373,-0.035,-0.0341,-0.0316,-0.029,-0.0264,-0.0247,-0.0216,-0.018,-0.0163,-0.0172,-0.0172,-0.0172,-0.0183,-0.0165,-0.0166,-0.016,-0.016,-0.016,0,0,-0.0434,-0.0433,-0.0436,-0.0422,-0.0407,-0.0397,-0.0387,-0.0368,-0.0361,-0.0334,-0.0312,-0.0285,-0.0253,-0.0223,-0.0207,-0.0206,-0.0158,-0.017,-0.0171,-0.0181,-0.0164,-0.0164,-0.0165,-0.0159,-0.0159,-0.0159,0,0,-0.0436,-0.0436,-0.044,-0.0424,-0.0405,-0.0393,-0.0388,-0.036,-0.035,-0.0318,-0.0307,-0.0281,-0.0229,-0.0217,-0.0203,-0.018,-0.016,-0.0166,-0.0187,-0.017,-0.0171,-0.0172,-0.0128,-0.0124,-0.0168,-0.0168,-0.0168,0,-0.0437,-0.0449,-0.0432,-0.0426,-0.0423,-0.0395,-0.0395,-0.0371,-0.0335,-0.0331,-0.0316,-0.0262,-0.0231,-0.0214,-0.021,-0.0184,-0.0162,-0.0193,-0.0173,-0.0173,-0.0174,-0.0129,-0.0125,-0.0169,-0.0169,-0.0169,-0.0169,0,-0.0444,-0.045,-0.0446,-0.0444,-0.0428,-0.0421,-0.0395,-0.0378,-0.0363,-0.0348,-0.0318,-0.0273,-0.0249,-0.023,-0.0212,-0.02,-0.0177,-0.0177,-0.018,-0.0177,-0.0128,-0.0124,-0.0171,-0.0171,-0.017,-0.017,0,0,-0.0464,-0.0458,-0.0459,-0.0471,-0.0444,-0.0439,-0.0421,-0.041,-0.0413,-0.0365,-0.0365,-0.0312,-0.0294,-0.0276,-0.0245,-0.0226,-0.0196,-0.0206,-0.0204,-0.0174,-0.0138,-0.0046,-0.0032,-0.0198,-0.0197,-0.0197,-0.0096,0,-0.0481,-0.0497,-0.0481,-0.0496,-0.0505,-0.0478,-0.0469,-0.045,-0.0425,-0.0409,-0.0367,-0.0346,-0.0309,-0.0297,-0.0272,-0.0221,-0.0189,-0.0223,-0.0135,-0.0132,-0.0061,-0.0025,-0.0009,0.0089,-0.0091,-0.009,-0.009,0,-0.05,-0.0515,-0.0536,-0.0549,-0.0549,-0.0547,-0.0549,-0.0533,-0.0497,-0.0477,-0.0446,-0.0406,-0.0365,-0.0335,-0.0247,-0.0271,-0.0208,-0.0163,-0.0158,-0.0063,-0.0031,0.0055,0.0104,0.0206,-0.0082,-0.0083,-0.0083,0,-0.0549,-0.0558,-0.0588,-0.0588,-0.0585,-0.0592,-0.0589,-0.056,-0.0559,-0.052,-0.0512,-0.0453,-0.042,-0.0348,-0.023,-0.0247,-0.0122,-0.0136,0.0012,0.002,0.0057,0.0069,0.0201,-0.0075,-0.0075,-0.0075,-0.0075,0,-0.0589,-0.0614,-0.0616,-0.0634,-0.0675,-0.0643,-0.067,-0.0653,-0.0624,-0.0625,-0.0554,-0.0529,-0.0425,-0.0332,-0.0239,-0.0076,-0.0122,0.0021,0.0052,0.0052,0.0062,0.0169,0.0205,-0.0071,-0.0072,-0.0073,-0.0074,0,-0.0641,-0.064,-0.0679,-0.069,-0.0701,-0.0728,-0.0738,-0.0754,-0.0706,-0.0701,-0.069,-0.059,-0.0453,-0.0313,-0.0173,-0.0074,0.014,0.0128,0.0145,0.0177,0.04,0.0433,0.0605,0.0672,0.0293,0.0296,0.0298,0,-0.0672,-0.0695,-0.0733,-0.0776,-0.0787,-0.082,-0.0848,-0.081,-0.082,-0.0732,-0.0739,-0.0591,-0.0477,-0.0202,-0.0001,0.0214,0.0273,0.0352,0.0321,0.0436,0.0494,0.051,0.0554,0.0363,0.0366,0.0368,0.037,0,-0.0735,-0.0742,-0.078,-0.0868,-0.0914,-0.0954,-0.098,-0.0985,-0.0924,-0.0877,-0.0776,-0.0663,-0.0371,-0.0099,0.0205,0.0316,0.0438,0.0407,0.0504,0.0554,0.06,0.0672,0.0291,0.039,0.0388,0.0387,0.0386,0.0385,-0.0784,-0.0831,-0.0887,-0.0975,-0.103,-0.107,-0.1083,-0.1068,-0.1032,-0.0917,-0.0812,-0.0599,-0.0203,0.0238,0.0387,0.0685,0.0634,0.0734,0.0764,0.0771,0.084,0.0535,0.0683,0.0683,0.0683,0.0682,0.0682,0,-0.0848,-0.091,-0.1,-0.1085,-0.1159,-0.116,-0.1167,-0.1138,-0.1066,-0.0911,-0.0768,-0.0318,0.0077,0.0433,0.0874,0.1021,0.1021,0.107,0.1064,0.1091,0.0799,0.0806,0.1016,0.1016,0.1016,0.1015,0.1015,0.1015,-0.0888,-0.0992,-0.1045,-0.1188,-0.1243,-0.1284,-0.1273,-0.1176,-0.1052,-0.0757,-0.049,-0.0286,0.0226,0.091,0.129,0.1306,0.1403,0.1392,0.1462,0.1221,0.1189,0.116,0.1175,0.1459,0.1459,0.172,0.1723,0.1725]}],[{"header":{"parameterUnit":"m.s-1","parameterCategory":2,"la1":30.2991,"la2":30.254,"lo1":-89.0895,"lo2":-89.0444,"dy":0.0017,"dx":0.0017,"nx":28,"ny":28,"refTime":"2024-05-04T21:00:00:Z","depth":"2","parameterNumber":2,"parameterNumberName":"U-component_of_CURRENTS"},"data":[0,0,0,0,0,0,0,0,0,0,0,0,0,0,0,0,0,0,0,0,0,0,0,0,0,0,0,0,0,0,0,0,0,0,0,0,0,0,0,0,0,0,0,0,0,0,0,0,0,0,0,0,0,0,0,0,0,0,-0.1407,-0.1407,0,-0.136,-0.1359,-0.1359,-0.1355,-0.1356,-0.1357,-0.1358,-0.1321,-0.132,-0.1318,0,0,0,0,0,0,0,0,0,0,0,0,0,-0.1439,-0.1439,-0.1407,-0.1407,-0.1406,-0.136,-0.1359,-0.1358,-0.1355,-0.1356,-0.1357,-0.1358,-0.1322,-0.132,-0.1318,0,0,0,0,0,0,0,0,0,0,0,0,0,-0.141,-0.1439,-0.1407,-0.1401,-0.14,-0.136,-0.1359,-0.1358,-0.1355,-0.1356,-0.1357,-0.1358,-0.1323,-0.132,-0.1318,-0.1279,0,0,-0.131,-0.1309,0,0,0,0,0,0,0,0,-0.1412,-0.1408,-0.1402,-0.1401,-0.14,-0.1367,-0.1358,-0.1333,-0.1355,-0.1369,-0.1358,-0.1359,-0.1338,-0.1335,-0.1319,-0.1278,-0.1276,-0.131,-0.1308,-0.1307,-0.1306,0,0,0,0,0,0,0,-0.1414,-0.141,-0.1386,-0.1402,-0.1401,-0.1382,-0.138,-0.1352,-0.1346,-0.1368,-0.1368,-0.1367,-0.1338,-0.1322,-0.1319,-0.1275,-0.131,-0.1308,-0.1306,-0.1305,-0.1294,-0.1295,0,0,0,0,0,0,-0.1426,-0.1412,-0.1387,-0.1385,-0.1412,-0.1381,-0.1378,-0.1374,-0.1346,-0.1344,-0.1366,-0.1367,-0.1326,-0.1322,-0.1317,-0.135,-0.1307,-0.1305,-0.1303,-0.1292,-0.1294,-0.1295,0,0,0,0,0,0,-0.1427,-0.1424,-0.1389,-0.14,-0.1394,-0.138,-0.1376,-0.1373,-0.1369,-0.1345,-0.1343,-0.1368,-0.1326,-0.1321,-0.1311,-0.1346,-0.1304,-0.1301,-0.1291,-0.1293,-0.1294,-0.1365,0,0,0,0,0,0,-0.1428,-0.1425,-0.1423,-0.14,-0.1394,-0.1378,-0.1375,-0.1371,-0.1367,-0.1368,-0.1345,-0.1342,-0.1327,-0.1315,-0.1309,-0.1342,-0.1299,-0.1289,-0.1292,-0.1294,-0.1361,-0.1369,-0.1376,0,0,0,0,0,-0.1429,-0.1419,-0.1423,-0.142,-0.1393,-0.1378,-0.1373,-0.1365,-0.1367,-0.1365,-0.1356,-0.1343,-0.1326,-0.1313,-0.1306,-0.1339,-0.1288,-0.1291,-0.1294,-0.1358,-0.1368,-0.1376,0,0,0,0,0,0,-0.1423,-0.1417,-0.1421,-0.1408,-0.1403,-0.1379,-0.1371,-0.1369,-0.1357,-0.136,-0.1341,-0.1337,-0.1347,-0.1327,-0.1314,-0.1345,-0.1312,-0.1313,-0.1364,-0.1372,-0.1379,-0.1405,-0.1297,0,0,0,0,0,-0.1424,-0.1419,-0.1414,-0.1402,-0.1403,-0.1389,-0.1381,-0.1381,-0.1368,-0.1364,-0.1354,-0.1348,-0.1348,-0.1347,-0.1336,-0.1337,-0.135,-0.136,-0.1368,-0.1374,-0.1391,-0.1424,-0.1436,-0.1304,-0.1304,-0.1304,0,0,-0.1416,-0.1413,-0.1409,-0.1402,-0.1394,-0.1403,-0.1387,-0.1381,-0.14,-0.1361,-0.1378,-0.1365,-0.1352,-0.1366,-0.1371,-0.1357,-0.1424,-0.1377,-0.1383,-0.1397,-0.1428,-0.1441,-0.1453,-0.1306,-0.1306,-0.1305,0,0,-0.1402,-0.14,-0.1397,-0.1403,-0.1404,-0.1405,-0.141,-0.1402,-0.1413,-0.1415,-0.1411,-0.1423,-0.1401,-0.142,-0.1421,-0.1458,-0.1458,-0.1455,-0.1515,-0.1547,-0.1558,-0.1569,-0.1626,-0.1641,-0.1463,-0.1463,-0.1463,0,-0.1395,-0.1399,-0.1393,-0.1402,-0.1419,-0.1414,-0.1433,-0.1437,-0.1432,-0.1456,-0.1432,-0.1452,-0.1435,-0.1485,-0.1501,-0.1478,-0.1499,-0.1482,-0.1558,-0.1568,-0.1577,-0.1633,-0.1649,-0.1467,-0.1466,-0.1466,-0.1466,0,-0.1388,-0.1402,-0.1401,-0.1425,-0.1438,-0.145,-0.1472,-0.1494,-0.1503,-0.1514,-0.1557,-0.1537,-0.1556,-0.1558,-0.1534,-0.1604,-0.1601,-0.1561,-0.1538,-0.1595,-0.1651,-0.1665,-0.1472,-0.1471,-0.147,-0.1469,0,0,-0.1351,-0.1392,-0.1394,-0.1431,-0.1461,-0.1477,-0.1522,-0.157,-0.1621,-0.1617,-0.1681,-0.168,-0.1675,-0.1678,-0.1665,-0.1695,-0.1776,-0.1659,-0.1658,-0.1722,-0.1873,-0.1691,-0.1689,-0.1744,-0.1747,-0.1748,-0.1895,0,-0.1354,-0.1389,-0.1413,-0.1469,-0.1498,-0.154,-0.1591,-0.1637,-0.1669,-0.1727,-0.1738,-0.1771,-0.172,-0.1734,-0.1758,-0.1762,-0.1814,-0.1742,-0.1804,-0.1807,-0.1641,-0.1699,-0.1575,-0.1678,-0.1909,-0.1911,-0.1913,0,-0.1343,-0.1378,-0.1426,-0.1526,-0.1545,-0.1583,-0.1691,-0.1734,-0.1813,-0.184,-0.1879,-0.1877,-0.1926,-0.1864,-0.1928,-0.1882,-0.1893,-0.1899,-0.1903,-0.1717,-0.1649,-0.1652,-0.1695,-0.1937,-0.1935,-0.1934,-0.1932,0,-0.1323,-0.1398,-0.1446,-0.1473,-0.1568,-0.162,-0.1678,-0.1765,-0.183,-0.1909,-0.1959,-0.1999,-0.203,-0.2039,-0.2021,-0.1985,-0.2094,-0.2041,-0.1912,-0.1901,-0.1798,-0.1771,-0.2116,-0.2116,-0.2116,-0.2115,-0.2115,0,-0.1312,-0.1355,-0.1446,-0.1469,-0.1559,-0.1627,-0.1732,-0.1792,-0.1902,-0.1991,-0.2007,-0.2054,-0.2071,-0.2112,-0.2087,-0.2033,-0.2145,-0.1941,-0.1921,-0.1818,-0.1792,-0.2005,-0.199,-0.2121,-0.2119,-0.2118,-0.2117,0,-0.1255,-0.1315,-0.138,-0.1495,-0.1542,-0.1597,-0.1754,-0.1843,-0.193,-0.205,-0.2077,-0.2132,-0.2118,-0.2139,-0.2168,-0.2105,-0.2081,-0.2049,-0.193,-0.1886,-0.1867,-0.1854,-0.1919,-0.1914,-0.1909,-0.1906,-0.1902,0,-0.1224,-0.1244,-0.1372,-0.1433,-0.1484,-0.1594,-0.1693,-0.1827,-0.1924,-0.207,-0.2124,-0.215,-0.2101,-0.2063,-0.1973,-0.1917,-0.1985,-0.1786,-0.1656,-0.187,-0.1845,-0.184,-0.1833,-0.1597,-0.1591,-0.1587,-0.1583,0,-0.1153,-0.1195,-0.1245,-0.1366,-0.1477,-0.1597,-0.1738,-0.1798,-0.1968,-0.2025,-0.2039,-0.1995,-0.1962,-0.1765,-0.1705,-0.1651,-0.176,-0.1681,-0.199,-0.1606,-0.156,-0.1536,-0.1543,-0.1544,-0.1548,-0.1551,-0.1553,-0.1554,-0.1089,-0.1102,-0.1178,-0.1286,-0.1427,-0.1534,-0.156,-0.169,-0.1737,-0.1782,-0.1852,-0.1743,-0.1739,-0.1457,-0.1387,-0.134,-0.1431,-0.1387,-0.1406,-0.1428,-0.1304,-0.1245,-0.1153,-0.1154,-0.1156,-0.1157,-0.1158,0,-0.0997,-0.1034,-0.1112,-0.1224,-0.1331,-0.1445,-0.1556,-0.1538,-0.1493,-0.1564,-0.1512,-0.1332,-0.1186,-0.1182,-0.1036,-0.0988,-0.1037,-0.0947,-0.1031,-0.1069,-0.1104,-0.0968,-0.0726,-0.0725,-0.0724,-0.0722,0,0,-0.0949,-0.0953,-0.0982,-0.1082,-0.1192,-0.1248,-0.1258,-0.1203,-0.1196,-0.1095,-0.1053,-0.1122,-0.1145,-0.0935,-0.0883,-0.078,-0.0923,-0.0743,-0.1092,-0.1231,-0.1264,-0.1358,-0.1189,0,0,0,0,0]},{"header":{"parameterUnit":"m.s-1","parameterCategory":2,"la1":30.2991,"la2":30.254,"lo1":-89.0895,"lo2":-89.0444,"dy":0.0017,"dx":0.0017,"nx":28,"ny":28,"refTime":"2024-05-04T21:00:00:Z","depth":"2","parameterNumber":3,"parameterNumberName":"V-component_of_CURRENTS"},"data":[0,0,0,0,0,0,0,0,0,0,0,0,0,0,0,0,0,0,0,0,0,0,0,0,0,0,0,0,0,0,0,0,0,0,0,0,0,0,0,0,0,0,0,0,0,0,0,0,0,0,0,0,0,0,0,0,0,0,-0.0216,-0.0215,0,-0.0154,-0.0153,-0.0153,-0.0146,-0.0147,-0.0148,-0.0148,-0.0097,-0.0095,-0.0093,0,0,0,0,0,0,0,0,0,0,0,0,0,-0.0256,-0.0255,-0.0216,-0.0215,-0.0214,-0.0154,-0.0153,-0.0152,-0.0146,-0.0147,-0.0148,-0.0148,-0.0097,-0.0095,-0.0093,0,0,0,0,0,0,0,0,0,0,0,0,0,-0.022,-0.0255,-0.0216,-0.0204,-0.0203,-0.0154,-0.0153,-0.0152,-0.0146,-0.0147,-0.0148,-0.0149,-0.0098,-0.0095,-0.0092,-0.0053,0,0,-0.0083,-0.0082,0,0,0,0,0,0,0,0,-0.0222,-0.0219,-0.0207,-0.0205,-0.0203,-0.0159,-0.0148,-0.012,-0.0146,-0.0167,-0.0148,-0.0149,-0.0118,-0.0114,-0.0099,-0.0051,-0.0048,-0.0083,-0.0081,-0.008,-0.0079,0,0,0,0,0,0,0,-0.0225,-0.0221,-0.0191,-0.0206,-0.0204,-0.0177,-0.0174,-0.0142,-0.0137,-0.0165,-0.0165,-0.0158,-0.0117,-0.0102,-0.0098,-0.0048,-0.0083,-0.008,-0.0078,-0.0077,0.0009,0.001,0,0,0,0,0,0,-0.0236,-0.0223,-0.0193,-0.0189,-0.0216,-0.0176,-0.0172,-0.0172,-0.0137,-0.0133,-0.0158,-0.0158,-0.0106,-0.0101,-0.0096,-0.0081,-0.008,-0.0077,-0.0075,0.0009,0.0009,0.001,0,0,0,0,0,0,-0.0237,-0.0234,-0.0195,-0.0205,-0.0198,-0.0175,-0.0174,-0.017,-0.0169,-0.0132,-0.0128,-0.0163,-0.0107,-0.01,-0.0077,-0.0078,-0.0075,-0.0073,0.0008,0.0009,0.0009,-0.0031,0,0,0,0,0,0,-0.0239,-0.0235,-0.0242,-0.0206,-0.0198,-0.0178,-0.0173,-0.0168,-0.0163,-0.0164,-0.0134,-0.013,-0.0107,-0.0082,-0.0074,-0.0074,-0.007,0.0007,0.0008,0.0009,-0.003,-0.0032,-0.0033,0,0,0,0,0,-0.0241,-0.0244,-0.0243,-0.0239,-0.0208,-0.0178,-0.0171,-0.0157,-0.0163,-0.0161,-0.0141,-0.0131,-0.0071,-0.0079,-0.007,-0.0069,0.0007,0.0008,0.0009,-0.003,-0.0031,-0.0033,0,0,0,0,0,0,-0.0258,-0.0243,-0.0241,-0.0239,-0.0216,-0.0177,-0.0175,-0.0164,-0.0146,-0.0152,-0.0123,-0.0116,-0.0095,-0.0073,-0.0083,-0.004,-0.0031,-0.0028,-0.0063,-0.0064,-0.0066,-0.0063,-0.0068,0,0,0,0,0,-0.0266,-0.0273,-0.0244,-0.0243,-0.0236,-0.0209,-0.0197,-0.0187,-0.0163,-0.0157,-0.0134,-0.0108,-0.0078,-0.0067,-0.0037,-0.0013,0.0012,-0.0006,-0.0008,-0.0009,0.0,0.0044,0.0047,0.0013,0.0013,0.0013,0,0,-0.0271,-0.0265,-0.0267,-0.0248,-0.0232,-0.0218,-0.0205,-0.0192,-0.018,-0.0152,-0.0136,-0.0111,-0.0072,-0.0047,-0.0036,-0.0033,0.001,-0.0008,-0.0009,0.0001,0.0045,0.0049,0.0051,0.0014,0.0014,0.0014,0,0,-0.0283,-0.0281,-0.0291,-0.0274,-0.0256,-0.0234,-0.0235,-0.0204,-0.0194,-0.0169,-0.0147,-0.012,-0.0081,-0.0048,-0.0027,-0.0013,0.0003,-0.0015,-0.0022,0.0019,0.0022,0.0025,0.004,0.0045,-0.0018,-0.0018,-0.0018,0,-0.029,-0.0299,-0.0285,-0.0284,-0.0274,-0.0246,-0.0243,-0.0218,-0.0183,-0.017,-0.0172,-0.01,-0.0074,-0.0029,-0.003,-0.0016,-0.0004,-0.0024,0.0016,0.002,0.0024,0.0039,0.0044,-0.002,-0.002,-0.002,-0.002,0,-0.0303,-0.031,-0.0312,-0.0305,-0.0289,-0.0282,-0.0247,-0.0233,-0.0219,-0.019,-0.0151,-0.0106,-0.0065,-0.0054,-0.004,-0.0001,-0.0007,0.0008,0.0016,0.0025,0.004,0.0046,-0.0023,-0.0022,-0.0022,-0.0021,0,0,-0.032,-0.0325,-0.0326,-0.0336,-0.0304,-0.0296,-0.0269,-0.0237,-0.0225,-0.0183,-0.0158,-0.0101,-0.0082,-0.0055,-0.003,0.0006,0.0032,0.0008,0.0011,0.0014,0.0098,0.0121,0.0131,0.0045,0.0047,0.0048,0.0089,0,-0.0337,-0.0359,-0.0344,-0.0352,-0.036,-0.0324,-0.0306,-0.027,-0.0231,-0.0197,-0.0137,-0.0104,-0.008,-0.0072,-0.0028,0.0017,0.0051,0.0019,0.0097,0.01,0.0113,0.0141,0.0125,0.0163,0.0095,0.0096,0.0097,0,-0.0356,-0.0372,-0.0393,-0.0399,-0.0399,-0.039,-0.0361,-0.0338,-0.0268,-0.0242,-0.0182,-0.0136,-0.0075,-0.0058,0.0037,0.0007,0.005,0.009,0.0093,0.0139,0.0137,0.015,0.0178,0.0109,0.0108,0.0107,0.0106,0,-0.0395,-0.0406,-0.0433,-0.0431,-0.0424,-0.0424,-0.0412,-0.0354,-0.0342,-0.0265,-0.0249,-0.0158,-0.0131,-0.0045,0.0036,0.0029,0.0139,0.0143,0.0211,0.0211,0.023,0.0231,0.0223,0.0223,0.0223,0.0223,0.0223,0,-0.0422,-0.0444,-0.046,-0.0474,-0.0506,-0.0474,-0.048,-0.0449,-0.0398,-0.0391,-0.0284,-0.0252,-0.0129,-0.0049,0.0033,0.0141,0.0138,0.0222,0.0236,0.0213,0.0212,0.0196,0.0192,0.0225,0.0224,0.0224,0.0224,0,-0.0457,-0.0468,-0.0506,-0.052,-0.0529,-0.055,-0.0548,-0.055,-0.049,-0.0473,-0.0457,-0.0334,-0.0227,-0.0093,0.0042,0.0123,0.0235,0.0275,0.0228,0.0238,0.0275,0.0269,0.0354,0.0356,0.0357,0.0358,0.0359,0,-0.0473,-0.0501,-0.0552,-0.0593,-0.0603,-0.0628,-0.0652,-0.0608,-0.06,-0.0527,-0.0524,-0.0405,-0.031,-0.0083,0.0088,0.0258,0.026,0.0333,0.0341,0.029,0.0295,0.0286,0.0279,0.0333,0.0334,0.0334,0.0335,0,-0.0503,-0.0531,-0.057,-0.0664,-0.0709,-0.0748,-0.0766,-0.077,-0.0722,-0.0679,-0.0604,-0.0515,-0.0289,-0.0073,0.0158,0.0251,0.031,0.0349,0.0324,0.0307,0.0276,0.0278,0.027,0.0339,0.0339,0.0338,0.0338,0.0338,-0.052,-0.0571,-0.0646,-0.0733,-0.0801,-0.0858,-0.0872,-0.0865,-0.0843,-0.076,-0.0673,-0.0504,-0.0295,0.0059,0.0219,0.0368,0.036,0.0403,0.0399,0.0395,0.039,0.0364,0.044,0.0441,0.0441,0.0441,0.0441,0,-0.0526,-0.0618,-0.0711,-0.0815,-0.0912,-0.0927,-0.0945,-0.0928,-0.0892,-0.0785,-0.0673,-0.0423,-0.016,0.0056,0.0302,0.0443,0.0424,0.0459,0.0415,0.041,0.0405,0.0399,0.0453,0.0453,0.0454,0.0454,0,0,-0.0534,-0.0633,-0.07,-0.0885,-0.0975,-0.104,-0.1044,-0.0988,-0.089,-0.0766,-0.0616,-0.0413,-0.0143,0.004,0.022,0.0347,0.0333,0.0348,0.0324,0.0244,0.0238,0.0359,0.0342,0,0,0,0,0]}],[{"header":{"parameterUnit":"m.s-1","parameterCategory":2,"la1":30.2991,"la2":30.254,"lo1":-89.0895,"lo2":-89.0444,"dy":0.0017,"dx":0.0017,"nx":28,"ny":28,"refTime":"2024-05-04T21:00:00:Z","depth":"4","parameterNumber":2,"parameterNumberName":"U-component_of_CURRENTS"},"data":[0,0,0,0,0,0,0,0,0,0,0,0,0,0,0,0,0,0,0,0,0,0,0,0,0,0,0,0,0,0,0,0,0,0,0,0,0,0,0,0,0,0,0,0,0,0,0,0,0,0,0,0,0,0,0,0,0,0,-0.0592,-0.0592,0,-0.0616,-0.0616,-0.0617,-0.0625,-0.0625,-0.0625,-0.0625,-0.0642,-0.0642,-0.0643,0,0,0,0,0,0,0,0,0,0,0,0,0,-0.0543,-0.0544,-0.0592,-0.0592,-0.0593,-0.0616,-0.0616,-0.0617,-0.0625,-0.0625,-0.0625,-0.0625,-0.0642,-0.0642,-0.0643,0,0,0,0,0,0,0,0,0,0,0,0,0,-0.0565,-0.0544,-0.0592,-0.0601,-0.0602,-0.0616,-0.0616,-0.0617,-0.0625,-0.0625,-0.0625,-0.0625,-0.0642,-0.0642,-0.0643,-0.0646,0,0,-0.0645,-0.0645,0,0,0,0,0,0,0,0,-0.0563,-0.0566,-0.0599,-0.06,-0.0601,-0.0619,-0.0606,-0.0627,-0.0625,-0.0615,-0.0625,-0.0625,-0.0634,-0.0636,-0.0638,-0.0647,-0.0648,-0.0645,-0.0645,-0.0646,-0.0646,0,0,0,0,0,0,0,-0.0562,-0.0565,-0.06,-0.0599,-0.0601,-0.06,-0.0603,-0.061,-0.0623,-0.0616,-0.0617,-0.0622,-0.0635,-0.0638,-0.0639,-0.0648,-0.0645,-0.0645,-0.0646,-0.0646,-0.0688,-0.0688,0,0,0,0,0,0,-0.0562,-0.0564,-0.0599,-0.0601,-0.0583,-0.0601,-0.0605,-0.0612,-0.0623,-0.0625,-0.0622,-0.0622,-0.0637,-0.0638,-0.0639,-0.0688,-0.0646,-0.0646,-0.0647,-0.0687,-0.0688,-0.0688,0,0,0,0,0,0,-0.0561,-0.0565,-0.0598,-0.0584,-0.0588,-0.0602,-0.0611,-0.0613,-0.0626,-0.0628,-0.0629,-0.0634,-0.0637,-0.0639,-0.0656,-0.0687,-0.0646,-0.0647,-0.0686,-0.0687,-0.0688,-0.0756,0,0,0,0,0,0,-0.0559,-0.0565,-0.0574,-0.0584,-0.0589,-0.0615,-0.0611,-0.0613,-0.0629,-0.063,-0.0639,-0.064,-0.0637,-0.0655,-0.0656,-0.0687,-0.0648,-0.0685,-0.0686,-0.0688,-0.0753,-0.0759,-0.0765,0,0,0,0,0,-0.0558,-0.0568,-0.0574,-0.0579,-0.06,-0.0616,-0.0618,-0.0627,-0.0629,-0.0638,-0.0645,-0.064,-0.0664,-0.0656,-0.0657,-0.0689,-0.0684,-0.0686,-0.0688,-0.075,-0.0758,-0.0765,0,0,0,0,0,0,-0.0549,-0.0571,-0.0577,-0.0593,-0.0608,-0.0618,-0.0627,-0.0634,-0.0647,-0.0649,-0.0649,-0.0651,-0.0677,-0.0669,-0.066,-0.0703,-0.0674,-0.0676,-0.072,-0.0728,-0.0734,-0.0756,-0.0648,0,0,0,0,0,-0.0553,-0.0568,-0.0586,-0.0598,-0.0607,-0.0619,-0.0628,-0.0637,-0.0647,-0.0653,-0.0661,-0.0669,-0.0684,-0.0694,-0.0698,-0.0723,-0.0714,-0.0743,-0.0749,-0.0754,-0.0773,-0.0766,-0.0774,-0.0694,-0.0694,-0.0694,0,0,-0.0551,-0.0566,-0.0574,-0.0598,-0.0608,-0.0624,-0.0625,-0.0642,-0.066,-0.0653,-0.068,-0.0689,-0.0693,-0.0722,-0.0733,-0.0722,-0.0774,-0.0756,-0.0761,-0.0777,-0.0769,-0.0777,-0.0783,-0.0695,-0.0695,-0.0695,0,0,-0.0552,-0.0571,-0.0582,-0.0599,-0.0622,-0.0633,-0.0641,-0.0661,-0.0676,-0.0702,-0.0705,-0.0739,-0.0748,-0.0772,-0.0781,-0.0822,-0.0802,-0.0817,-0.0874,-0.0867,-0.0874,-0.088,-0.0888,-0.0894,-0.0824,-0.0825,-0.0825,0,-0.0548,-0.0567,-0.0587,-0.0604,-0.0619,-0.0639,-0.0654,-0.0674,-0.0699,-0.0725,-0.0716,-0.0765,-0.0777,-0.0826,-0.0853,-0.084,-0.0829,-0.0849,-0.0877,-0.0882,-0.0887,-0.0893,-0.0899,-0.0828,-0.0828,-0.0827,-0.0827,0,-0.0555,-0.0576,-0.0585,-0.0614,-0.0635,-0.0651,-0.0682,-0.071,-0.0731,-0.076,-0.0811,-0.0829,-0.0862,-0.0876,-0.0887,-0.0937,-0.0916,-0.0881,-0.0861,-0.0899,-0.0903,-0.0908,-0.0833,-0.0832,-0.0831,-0.083,0,0,-0.0527,-0.0579,-0.0581,-0.0603,-0.0642,-0.066,-0.07,-0.0748,-0.0786,-0.0821,-0.0866,-0.0926,-0.0947,-0.096,-0.0972,-0.0992,-0.1037,-0.0966,-0.0964,-0.0981,-0.103,-0.0981,-0.0981,-0.0996,-0.0997,-0.0998,-0.1023,0,-0.0523,-0.0554,-0.0585,-0.062,-0.0638,-0.0682,-0.0726,-0.0779,-0.0814,-0.0864,-0.0912,-0.0961,-0.0971,-0.1,-0.1021,-0.1036,-0.105,-0.1034,-0.0986,-0.0985,-0.0942,-0.0985,-0.1001,-0.1026,-0.1027,-0.1028,-0.1028,0,-0.0512,-0.0539,-0.0567,-0.0638,-0.0653,-0.0684,-0.0756,-0.0801,-0.0882,-0.0921,-0.0975,-0.0999,-0.1075,-0.1049,-0.1096,-0.108,-0.107,-0.1069,-0.1068,-0.1005,-0.0945,-0.0976,-0.1037,-0.1036,-0.1035,-0.1035,-0.1034,0,-0.0469,-0.0527,-0.0551,-0.057,-0.065,-0.0686,-0.0739,-0.0821,-0.0861,-0.0959,-0.0984,-0.1061,-0.1092,-0.1101,-0.1118,-0.1108,-0.1135,-0.1106,-0.1047,-0.1044,-0.105,-0.1043,-0.1113,-0.1113,-0.1113,-0.1113,-0.1113,0,-0.0444,-0.0467,-0.0538,-0.055,-0.0595,-0.0676,-0.0733,-0.08,-0.0886,-0.0946,-0.101,-0.1048,-0.1103,-0.1117,-0.1125,-0.1111,-0.1133,-0.1078,-0.105,-0.1078,-0.1074,-0.1054,-0.1047,-0.1113,-0.1113,-0.1113,-0.1113,0,-0.0388,-0.0431,-0.0462,-0.0545,-0.0568,-0.0607,-0.0703,-0.0749,-0.0849,-0.0914,-0.0949,-0.1043,-0.1104,-0.112,-0.1151,-0.1111,-0.1109,-0.1081,-0.1133,-0.1104,-0.1024,-0.1021,-0.1044,-0.1042,-0.1041,-0.104,-0.1039,0,-0.0367,-0.0372,-0.0429,-0.0442,-0.0477,-0.0544,-0.0588,-0.0709,-0.076,-0.091,-0.0932,-0.1019,-0.1076,-0.1088,-0.1114,-0.1115,-0.1088,-0.1068,-0.1047,-0.1049,-0.1019,-0.1017,-0.1015,-0.1037,-0.1037,-0.1036,-0.1036,0,-0.0319,-0.0332,-0.0351,-0.0365,-0.04,-0.0448,-0.0529,-0.0567,-0.0732,-0.0797,-0.0931,-0.0986,-0.1038,-0.1088,-0.1078,-0.1072,-0.1083,-0.1054,-0.1057,-0.1038,-0.1041,-0.1012,-0.1012,-0.1032,-0.1033,-0.1033,-0.1033,0,-0.0276,-0.0267,-0.0278,-0.0291,-0.0319,-0.0369,-0.0429,-0.0537,-0.0614,-0.0808,-0.0853,-0.0967,-0.106,-0.1063,-0.1062,-0.1054,-0.1042,-0.0999,-0.1004,-0.1009,-0.0981,-0.0979,-0.0944,0,0,0,0,0,-0.0237,-0.0215,-0.0212,-0.0218,-0.0243,-0.0268,-0.0393,-0.0474,-0.0625,-0.0708,-0.0797,-0.0872,-0.0943,-0.0988,-0.0971,-0.0998,-0.1003,-0.0968,-0.0945,-0.1008,-0.1013,-0.0981,0,0,0,0,0,0,-0.0208,-0.0194,-0.0184,-0.0152,-0.0146,-0.0181,-0.0272,-0.0386,-0.0463,-0.0626,-0.0676,-0.0778,-0.0847,-0.0922,-0.0931,-0.0939,-0.0903,-0.1028,-0.1026,-0.1005,-0.101,-0.1014,-0.0982,0,0,0,0,0]},{"header":{"parameterUnit":"m.s-1","parameterCategory":2,"la1":30.2991,"la2":30.254,"lo1":-89.0895,"lo2":-89.0444,"dy":0.0017,"dx":0.0017,"nx":28,"ny":28,"refTime":"2024-05-04T21:00:00:Z","depth":"4","parameterNumber":3,"parameterNumberName":"V-component_of_CURRENTS"},"data":[0,0,0,0,0,0,0,0,0,0,0,0,0,0,0,0,0,0,0,0,0,0,0,0,0,0,0,0,0,0,0,0,0,0,0,0,0,0,0,0,0,0,0,0,0,0,0,0,0,0,0,0,0,0,0,0,0,0,0.0046,0.0046,0,0.0075,0.0076,0.0076,0.0106,0.0106,0.0107,0.0107,0.0161,0.0162,0.0163,0,0,0,0,0,0,0,0,0,0,0,0,0,0.0042,0.0042,0.0046,0.0046,0.0047,0.0075,0.0076,0.0076,0.0106,0.0106,0.0107,0.0107,0.0161,0.0162,0.0164,0,0,0,0,0,0,0,0,0,0,0,0,0,0.0055,0.0042,0.0046,0.0064,0.0066,0.0075,0.0076,0.0076,0.0106,0.0106,0.0107,0.0107,0.016,0.0162,0.0164,0.0164,0,0,0.0169,0.017,0,0,0,0,0,0,0,0,0.0055,0.0056,0.0061,0.0063,0.0065,0.0087,0.0094,0.0107,0.0106,0.0092,0.0107,0.0107,0.0138,0.0141,0.0147,0.0167,0.0169,0.0169,0.017,0.0171,0.0171,0,0,0,0,0,0,0,0.0054,0.0055,0.0059,0.0062,0.0064,0.008,0.0082,0.0097,0.0113,0.0093,0.0095,0.0097,0.0139,0.0145,0.0148,0.017,0.0169,0.0171,0.0172,0.0172,0.0192,0.0191,0,0,0,0,0,0,0.0046,0.0053,0.0058,0.0059,0.006,0.0079,0.0082,0.008,0.0112,0.0117,0.0096,0.0098,0.0142,0.0146,0.015,0.0148,0.0171,0.0173,0.0174,0.0192,0.0192,0.0191,0,0,0,0,0,0,0.0046,0.0046,0.0056,0.0057,0.0059,0.0079,0.0076,0.008,0.0088,0.0114,0.012,0.01,0.0142,0.0148,0.0162,0.0151,0.0173,0.0175,0.0193,0.0192,0.0192,0.0148,0,0,0,0,0,0,0.0046,0.0046,0.0044,0.0056,0.0059,0.0055,0.0076,0.008,0.0088,0.0091,0.0119,0.0125,0.0143,0.0159,0.0163,0.0154,0.0176,0.0194,0.0193,0.0192,0.015,0.0145,0.0142,0,0,0,0,0,0.0045,0.0038,0.0044,0.0045,0.0055,0.0055,0.0057,0.0074,0.0088,0.0085,0.0107,0.0124,0.0156,0.016,0.0165,0.0156,0.0194,0.0193,0.0192,0.0151,0.0146,0.0142,0,0,0,0,0,0,0.0037,0.004,0.0048,0.0042,0.0046,0.0059,0.006,0.0072,0.0087,0.0092,0.0121,0.0127,0.0133,0.0151,0.0155,0.0158,0.0177,0.0176,0.0144,0.0139,0.0135,0.0141,0.0178,0,0,0,0,0,0.0033,0.0029,0.0034,0.0031,0.0031,0.0046,0.005,0.0058,0.0072,0.008,0.01,0.012,0.0131,0.0141,0.0154,0.0159,0.0183,0.0155,0.0151,0.0148,0.0156,0.0168,0.0166,0.0188,0.0188,0.0188,0,0,0.0031,0.0031,0.003,0.0029,0.0035,0.0024,0.005,0.005,0.0041,0.0083,0.0083,0.0106,0.0129,0.0132,0.0136,0.0147,0.0155,0.0146,0.0143,0.0154,0.0166,0.0164,0.0163,0.0187,0.0187,0.0187,0,0,0.0014,0.0021,0.0008,0.0005,0.0007,0.0012,0.001,0.002,0.0025,0.0028,0.0053,0.0075,0.0091,0.0109,0.0119,0.0102,0.0132,0.0101,0.0089,0.01,0.0098,0.0097,0.013,0.0133,0.0101,0.0101,0.0101,0,0.0012,-0.0006,0.0005,-0.0012,-0.0019,0.0002,-0.0018,-0.0013,0.0,0.0003,0.002,0.0054,0.008,0.0086,0.0088,0.0094,0.0112,0.0104,0.0095,0.0094,0.0094,0.0128,0.0131,0.0099,0.0099,0.0099,0.0099,0,-0.0018,-0.0033,-0.0042,-0.0058,-0.0064,-0.0076,-0.0075,-0.0077,-0.0062,-0.005,-0.0038,0.0002,0.0025,0.0034,0.0062,0.0069,0.0087,0.0085,0.0106,0.0089,0.0126,0.013,0.0095,0.0096,0.0097,0.0097,0,0,-0.002,-0.0056,-0.0059,-0.0082,-0.0091,-0.0103,-0.012,-0.0128,-0.0139,-0.011,-0.0114,-0.007,-0.0034,-0.0018,0.0016,0.0041,0.0066,0.0067,0.0069,0.0101,0.0106,0.0095,0.0099,0.0057,0.0058,0.0058,0.0135,0,-0.0045,-0.0093,-0.0102,-0.0147,-0.0173,-0.017,-0.019,-0.0192,-0.0182,-0.018,-0.0131,-0.0115,-0.0062,-0.0043,-0.0012,0.0053,0.0073,0.0047,0.0119,0.0122,0.0113,0.0102,0.0059,0.0138,0.0139,0.014,0.0141,0,-0.0069,-0.0102,-0.0153,-0.0203,-0.0213,-0.0236,-0.0264,-0.0277,-0.0266,-0.0252,-0.0219,-0.0181,-0.0117,-0.0087,0.0018,-0.0002,0.0049,0.0096,0.0099,0.0109,0.0117,0.0159,0.0148,0.0148,0.0147,0.0147,0.0146,0,-0.008,-0.0138,-0.0183,-0.0199,-0.0247,-0.0271,-0.0289,-0.0295,-0.031,-0.0289,-0.0284,-0.0217,-0.0171,-0.01,0.0014,0.0016,0.0116,0.0124,0.0157,0.0158,0.0166,0.0166,0.0166,0.0166,0.0166,0.0166,0.0166,0,-0.0104,-0.014,-0.0195,-0.0221,-0.0278,-0.0295,-0.0342,-0.0347,-0.0354,-0.0363,-0.0312,-0.0292,-0.0173,-0.0102,-0.0008,0.0098,0.0098,0.0161,0.0172,0.0147,0.0144,0.017,0.0169,0.0169,0.0168,0.0168,0.0167,0,-0.0107,-0.0141,-0.02,-0.0262,-0.0286,-0.0322,-0.038,-0.0411,-0.0402,-0.0412,-0.0402,-0.0332,-0.0224,-0.0122,0.0008,0.0071,0.0167,0.0188,0.0169,0.0177,0.0212,0.0209,0.0251,0.0251,0.0251,0.0251,0.0251,0,-0.0114,-0.0144,-0.0226,-0.027,-0.0302,-0.0361,-0.0405,-0.0427,-0.0447,-0.0429,-0.0426,-0.0345,-0.0285,-0.0106,0.0007,0.0161,0.017,0.0219,0.0211,0.0212,0.0219,0.0215,0.0211,0.0252,0.0252,0.0252,0.0252,0,-0.0126,-0.0151,-0.0198,-0.0283,-0.0345,-0.0421,-0.0472,-0.0489,-0.0499,-0.0497,-0.0442,-0.0358,-0.0249,-0.0102,0.0001,0.0112,0.0195,0.022,0.0221,0.0214,0.0213,0.0219,0.0215,0.0252,0.0252,0.0252,0.0252,0,-0.0125,-0.016,-0.0219,-0.0294,-0.0378,-0.0454,-0.0487,-0.0507,-0.0524,-0.0494,-0.0468,-0.0358,-0.0285,-0.0128,-0.0023,0.0077,0.0108,0.0139,0.0145,0.0146,0.0086,0.0068,0.0073,0,0,0,0,0,-0.0124,-0.0163,-0.0233,-0.0318,-0.04,-0.0448,-0.0522,-0.0543,-0.0545,-0.0514,-0.0493,-0.0392,-0.0232,-0.0154,-0.0055,-0.0017,0.0123,0.0101,0.0161,0.0254,0.0254,0.02,0,0,0,0,0,0,-0.0128,-0.018,-0.0222,-0.0318,-0.0377,-0.0468,-0.0519,-0.053,-0.0505,-0.0489,-0.0401,-0.036,-0.0199,-0.0277,-0.0045,-0.0015,0.0036,0.0179,0.0181,0.0255,0.0254,0.0254,0.0198,0,0,0,0,0]}]]